Simultaneous Nadir Overpasses (SNOs) Predictions

Prediction of SNOs between METOP-A and TERRA Satellite Orbit:

Table of predicted SNOs for the next 14.0 days since TLE Epoch: 5/18/2013
Index Date (METOP-A) Time (METOP-A) Lat,Lon (METOP-A) SZA (METOP-A ) Date (TERRA) Time (TERRA) Lat,Lon (TERRA) SZA (TERRA ) Distance(km) Time Diff (sec)
1 05/18/2013 13:03:47 81.30, 31.21 64.64 05/18/2013 13:03:55 81.31, 31.30 64.66 1.82 8
2 05/18/2013 13:54:26 -81.30,-160.99 115.31 05/18/2013 13:53:22 -81.30,-161.15 115.36 2.64 64
3 05/21/2013 08:38:08 81.30, 97.65 64.06 05/21/2013 08:38:17 81.29, 97.46 64.04 3.22 9
4 05/21/2013 09:28:48 -81.30, -94.92 115.94 05/21/2013 09:27:44 -81.29, -94.92 115.98 0.71 64
5 05/24/2013 04:12:31 81.29, 163.63 63.46 05/24/2013 04:12:46 81.29, 163.79 63.49 2.71 15
6 05/24/2013 05:03:10 -81.30, -28.51 116.48 05/24/2013 05:02:13 -81.29, -28.52 116.52 0.58 57
7 05/26/2013 23:46:52 81.29,-129.66 63.00 05/26/2013 23:47:21 81.30,-129.70 63.01 0.78 29
8 05/27/2013 00:37:31 -81.30, 38.22 116.94 05/27/2013 00:36:48 -81.30, 38.05 116.98 2.93 43
9 05/29/2013 19:21:13 81.29, -63.41 62.52 05/29/2013 19:22:02 81.30, -63.41 62.55 0.44 49




NCC Satellite Simultaneous Nadir Overpasses (SNOs) Prediction Service
